Home   Weather   Braunau am Inn   Past weeks

Flag for Austria Past Weather in Braunau am Inn, Upper Austria, Austria — Yesterday and Last 2 Weeks

Now
35 °F

Light rain. Overcast.


Feels Like: N/A
Forecast: 40 / 47 °F
Wind: N/A

Location: Salzburg-Flughafen

Current Time: Feb 20, 2017 at 3:03:36 am

Latest Report: Feb 20, 2017 at 2:00 am


Visibility: 25 mi

Pressure: 30.28 "Hg

Humidity: 87%

Dew Point: 31 °F

Location of Braunau am InnLocation

Past Weather in Braunau am Inn — Graph

°F

Braunau am Inn Temperature Yesterday

Maximum temperature yesterday: 49 °F (at 3:00 pm)
Minimum temperature yesterday: 25 °F (at 6:00 am)
Average temperature yesterday: 37 °F

High & Low Weather Summary for the Past Weeks

 TemperatureHumidityPressure
High56 °F (Feb 16, 4:00 pm)100% (Feb 8, 12:00 am)30.67 "Hg (Feb 8, 12:00 am)
Low21 °F (Feb 14, 5:00 am)34% (Feb 16, 3:00 pm)29.59 "Hg (Feb 5, 3:00 pm)
Average34 °F83%30.27 "Hg
* Reported Feb 5 1:00 am — Feb 20 1:00 am, Braunau am Inn, Weather by CustomWeather, © 2017

Note: Actual official high and low records may vary slightly from our data, if they occured in-between our weather recording intervals... More about our weather records

Advertising

Braunau am Inn Weather History for the Previous 24 Hours

Scroll right to see more
 ConditionsComfort  
Time TempWeatherWind HumidityBarometerVisibility
1:00 am
Mon, Feb 20
35 °FOvercast.N/A85%30.28 "Hg28 mi
12:00 am33 °FOvercast.N/A90%30.28 "Hg15 mi
11:00 pm
Sun, Feb 19
33 °FOvercast.N/A89%30.28 "Hg13 mi
10:00 pm34 °FOvercast.N/A88%30.27 "Hg13 mi
9:00 pm37 °FOvercast.N/A80%30.25 "Hg22 mi
8:00 pm39 °FOvercast.N/A76%30.23 "Hg19 mi
7:00 pm38 °FOvercast.N/A76%30.22 "Hg28 mi
6:00 pm40 °FPassing clouds.N/A72%30.20 "Hg31 mi
5:00 pm48 °FPassing clouds.N/A55%30.18 "Hg28 mi
4:00 pm49 °FPassing clouds.N/A51%30.19 "Hg25 mi
3:00 pm49 °FPassing clouds.N/A53%30.20 "Hg18 mi
2:00 pm48 °FPassing clouds.N/A52%30.22 "Hg28 mi
1:00 pm45 °FPassing clouds.N/A54%30.26 "Hg28 mi
12:00 pm43 °FPassing clouds.N/A60%30.28 "Hg17 mi
11:00 am41 °FSunny.3 mph67%30.29 "Hg15 mi
10:00 am37 °FSunny.5 mph78%30.31 "Hg19 mi
9:00 am33 °FPassing clouds.6 mph84%30.32 "Hg17 mi
8:00 am28 °FPassing clouds.N/A92%30.35 "Hg13 mi
7:00 am27 °FMixture of precip. Passing clouds.N/A96%30.35 "Hg4 mi
6:00 am25 °FIcy mix. Passing clouds.N/A93%30.37 "Hg1 mi
5:00 am28 °FPassing clouds.N/A93%30.36 "Hg4 mi
4:00 am29 °FChilly.N/A96%30.35 "Hg6 mi
3:00 am30 °FPassing clouds.N/A95%30.35 "Hg7 mi
Weather by CustomWeather, © 2017

See weather overviewHow to use our weather pages